Location: Burera
(21.3780°N, 81.9534°E)
Time: 00:06:27
(UTC+00:00)

Hubble Space Telescope - Pass Details

Date: 13 August 2020
Orbit: 536 x 540 km, 28.5° (Epoch: 22 September)

Event Time Altitude Azimuth Distance (km) Brightness Sun altitude
Exits shadow 22:46:53 19° 313° (NW) 1,288 2.5 -19.1°
Maximum altitude 22:48:55 29° 359° (N) 989 2.3 -18.6°
Drops below altitude 10° 22:52:32 10° 61° (ENE) 1,782 4.7 -17.9°
Sets 22:55:01 0° 72° (ENE) 2,673 6.1 -17.3°
